Location: McFarlands Corners
(41.4117°N, 81.3382°W)
Time: 01:27:28
(UTC+00:00)

Transit 4A - Pass Details

Date: 20 November 2024
Orbit: 862 x 980 km, 66.8° (Epoch: 08 December)

Event Time Altitude Azimuth Distance (km) Brightness Sun altitude
Rises 00:27:36 0° 337° (NNW) 3,663 11.3 -27.1°
Reaches altitude 10° 00:30:52 10° 353° (N) 2,726 10.4 -27.7°
Enters shadow 00:32:45 16° 8° (N) 2,311 9.8 -28.0°
